Location: Kuffner-Sternwarte
(48.2130°N, 16.2960°E)
Time: 22:30:32
(UTC+01:00)

XW-2C - Visible Passes

Search period start: 05 November 2024 00:00
Search period end: 15 November 2024 00:00
Orbit: 379 x 389 km, 97.5° (Epoch: 05 November)

Date Brightness Start Highest point End Pass type
(mag) Time Alt. Az. Time Alt. Az. Time Alt. Az.
05 Nov ? 18:36:09 25° NNW 18:36:09 25° NNW 18:37:34 10° NNW visible
06 Nov ? 17:40:53 15° NE 17:40:53 15° NE 17:41:50 10° NNE visible
06 Nov ? 19:13:11 12° NW 19:13:11 12° NW 19:13:27 10° NW visible
07 Nov ? 18:17:39 17° N 18:17:39 17° N 18:18:29 10° N visible
08 Nov ? 18:54:08 11° NNW 18:54:08 11° NNW 18:54:15 10° NNW visible
09 Nov ? 17:58:06 11° N 17:58:06 11° N 17:58:14 10° N visible
